Weather History for Dalhart, TX

Change the Weather History Date:

Monday, September 10, 2012

  Actual Average Record
Temperature  
Mean Temperature 69 °F 70 °F  
Max Temperature 91 °F 84 °F 97 °F (2000)
Min Temperature 47 °F 55 °F 37 °F (1962)
Degree Days  
Heating Degree Days 0 1  
Month to date heating degree days 0 5  
Since 1 July heating degree days 0 8  
Cooling Degree Days 4 6  
Month to date cooling degree days 96 68  
Year to date cooling degree days 1568 1064  
Growing Degree Days 19 (Base 50)    
Moisture  
Dew Point 41 °F    
Average Humidity 41    
Maximum Humidity 61    
Minimum Humidity 21    
Precipitation  
Precipitation 0.00 in 0.05 in 1.05 in (1991)
Month to date precipitation 0.01 0.60  
Year to date precipitation 5.98 13.95  
Snow  
Snow 0.00 in 0.00 in 0.00 in ()
Month to date snowfall 0.0 0.0  
Since 1 July snowfall 0.0 0.0  
Since 1 September snowfall 0.0 0.0  
Snow Depth 0.00 in    
Sea Level Pressure  
Sea Level Pressure 29.97 in    
Wind  
Wind Speed 14 mph (SSW)    
Max Wind Speed 25 mph    
Max Gust Speed 32 mph    
Visibility 10 miles    
Events      
T = Trace of Precipitation, MM = Missing Value Source: NWS Daily Summary

Daily Weather History Graph

Daily Weather History Graph

Search for Another Location

Airport:

Trip Planner

Search our weather history database for the weather conditions in past years. The results will help you decide how hot, cold, wet, or windy it might be!

Date:

Astronomy

Sep. 10, 2012 Rise Set
Actual Time 7:29 AM CDT 8:04 PM CDT
Civil Twilight 7:03 AM CDT 8:29 PM CDT
Nautical Twilight 6:33 AM CDT 9:00 PM CDT
Astronomical Twilight 6:01 AM CDT 9:31 PM CDT
Moon 2:00 AM CDT (9/10) 4:27 PM CDT (9/10)
Length of Visible Light 13h 26m
Length of Day
12h 34m
Waning Crescent, 30% of the Moon is Illuminated
Sep 10
Waning Crescent
Sep 15
New
Sep 22
First Quarter
Sep 29
Full
Oct 8
Last Quarter

Hourly Weather History & Observations

Time (CDT) Temp. Dew Point Humidity Pressure Visibility Wind Dir Wind Speed Gust Speed Precip Events Conditions
12:53 AM 55.0 °F 36.0 °F 49% 30.08 in 10.0 mi South 6.9 mph - N/A   Clear
1:53 AM 51.1 °F 35.1 °F 54% 30.09 in 10.0 mi SSW 6.9 mph - N/A   Clear
2:53 AM 57.9 °F 35.1 °F 42% 30.06 in 10.0 mi South 10.4 mph - N/A   Clear
3:53 AM 52.0 °F 34.0 °F 50% 30.06 in 10.0 mi SSW 6.9 mph - N/A   Clear
4:53 AM 50.0 °F 34.0 °F 54% 30.05 in 10.0 mi South 5.8 mph - N/A   Clear
5:53 AM 52.0 °F 35.1 °F 53% 30.04 in 10.0 mi SSW 5.8 mph - N/A   Clear
6:53 AM 48.9 °F 36.0 °F 61% 30.05 in 10.0 mi SSW 5.8 mph - N/A   Clear
7:53 AM 50.0 °F 36.0 °F 59% 30.07 in 10.0 mi SW 6.9 mph - N/A   Clear
8:53 AM 61.0 °F 39.0 °F 44% 30.06 in 10.0 mi SSW 5.8 mph - N/A   Clear
9:53 AM 70.0 °F 44.1 °F 39% 30.04 in 10.0 mi SSW 13.8 mph - N/A   Clear
10:53 AM 77.0 °F 46.0 °F 33% 30.02 in 10.0 mi SSW 18.4 mph 25.3 mph N/A   Clear
11:53 AM 81.0 °F 45.0 °F 28% 30.00 in 10.0 mi SW 19.6 mph 27.6 mph N/A   Clear
12:53 PM 82.9 °F 45.0 °F 26% 29.99 in 10.0 mi South 23.0 mph 28.8 mph N/A   Clear
1:53 PM 86.0 °F 46.0 °F 25% 29.96 in 10.0 mi SSW 17.3 mph 29.9 mph N/A   Clear
2:53 PM 88.0 °F 45.0 °F 22% 29.92 in 10.0 mi SW 18.4 mph 31.1 mph N/A   Clear
3:53 PM 89.1 °F 46.0 °F 22% 29.89 in 10.0 mi SSW 20.7 mph 29.9 mph N/A   Clear
4:53 PM 90.0 °F 46.0 °F 22% 29.87 in 10.0 mi SSW 16.1 mph 29.9 mph N/A   Clear
5:53 PM 90.0 °F 46.0 °F 22% 29.85 in 10.0 mi SSW 13.8 mph 27.6 mph N/A   Clear
6:53 PM 89.1 °F 45.0 °F 22% 29.85 in 10.0 mi SSW 19.6 mph 25.3 mph N/A   Partly Cloudy
7:53 PM 84.0 °F 45.0 °F 25% 29.85 in 10.0 mi South 13.8 mph - N/A   Clear
8:53 PM 81.0 °F 44.1 °F 27% 29.85 in 10.0 mi South 16.1 mph - N/A   Clear
9:53 PM 79.0 °F 42.1 °F 27% 29.85 in 10.0 mi South 20.7 mph - N/A   Clear
10:53 PM 77.0 °F 42.1 °F 29% 29.86 in 10.0 mi South 19.6 mph - N/A   Clear
11:53 PM 75.0 °F 43.0 °F 32% 29.86 in 10.0 mi South 18.4 mph - N/A   Clear